Temp
17 17 17 16 16 18 19 18 18 19 19 19 19 20 20 20 20 20 20 20 20 20 20 21 21 21 21 22 22 22 22 21 21 21 21 21 21 21 21 21 21 21
17 17 17 16 17 18 18 18 18 18 18 19 19 19 19 19 19 20 20 20 21 21 21 21 21 20 20 20 21 21 22 21 21 21 21 21 20 20 21 21 21 20
17 17 17 17 18 18 18 18 18 18 18 18 18 19 19 19 20 20 19 20 21 21 21 21 22 22 21 20 20 20 21 21 21 21 21 20 20 20 20 20 21 20
17 17 18 18 18 18 18 18 18 17 18 18 18 18 18 18 20 20 19 19 20 20 20 21 21 21 21 21 20 20 20 20 20 20 20 20 20 20 20 20 20 20
17 17 17 18 18 18 18 18 18 18 18 18 18 18 18 18 19 19 19 19 19 19 20 20 20 20 20 20 20 20 20 20 19 19 19 19 19 19 19 19 19 19
17 17 17 17 17 18 18 19 18 18 18 18 18 18 18 18 18 18 19 19 19 19 19 19 20 19 20 20 20 20 20 20 19 19 19 18 19 19 19 19 19 19
18 17 17 17 17 17 17 18 18 18 18 18 18 18 18 18 19 19 19 19 19 19 19 19 19 19 19 20 20 20 20 20 20 19 19 19 20 20 20 20 20 19
18 18 17 17 17 16 16 16 16 17 18 18 18 18 18 18 19 19 19 19 19 19 19 19 19 20 20 20 20 19 19 19 19 19 19 19 20 20 20 20 19 19
17 17 17 17 17 17 17 17 17 17 17 17 17 17 17 17 18 18 19 19 19 19 19 19 20 20 20 20 20 20 19 19 19 19 20 20 20 20 20 19 19 19
17 17 17 17 17 17 17 18 18 17 17 17 18 17 17 16 16 16 17 18 18 19 19 19 19 20 20 20 19 19 19 19 18 18 19 19 19 19 19 19 18 19
16 17 17 17 17 17 17 17 17 17 17 18 18 18 18 18 17 16 16 17 17 18 18 19 19 19 19 19 19 19 19 19 18 17 18 19 19 19 19 19 19 19
16 16 16 16 16 16 16 17 17 17 17 17 17 17 18 18 18 18 17 17 17 17 18 18 18 18 18 18 19 18 18 18 18 17 18 18 18 19 19 19 19 19
16 16 16 16 16 16 16 17 17 17 17 17 17 17 17 18 18 18 18 18 18 18 18 18 18 18 18 18 18 18 17 18 18 18 18 18 18 18 18 18 18 18
16 15 16 16 16 16 16 16 16 16 16 16 16 17 17 17 17 17 18 18 18 19 19 19 19 18 18 18 18 17 17 17 17 18 18 17 17 18 18 18 18 18
16 16 16 16 16 16 16 16 16 16 16 16 16 16 17 17 17 17 17 17 18 18 18 19 19 18 18 18 17 17 17 17 17 17 17 17 17 17 18 18 18 18
16 16 16 16 16 16 16 16 16 15 15 16 16 16 16 16 16 16 16 16 17 17 17 18 18 18 17 17 17 17 17 17 17 16 17 17 17 17 17 18 18 18
16 16 16 16 15 16 15 15 15 15 15 15 15 15 15 15 15 15 15 15 16 16 16 17 17 17 17 17 17 17 17 16 16 16 16 16 17 17 17 18 18 18
16 16 16 15 15 15 15 15 15 15 15 14 14 14 14 14 14 14 15 15 15 15 16 16 16 16 16 16 16 16 16 16 15 15 15 16 16 16 17 17 17 18
16 16 15 15 15 15 15 15 15 14 14 13 13 13 13 13 13 13 14 14 14 14 14 15 15 16 16 15 15 15 15 15 14 14 14 14 14 15 15 16 17 17
15 15 15 15 15 14 14 14 14 13 13 13 12 12 12 12 12 12 12 13 13 13 13 13 14 14 14 14 14 14 14 14 14 13 13 13 14 14 14 15 16 16
15 15 15 14 14 14 14 13 13 12 12 12 11 11 11 11 11 11 11 11 11 12 12 13 13 13 13 13 13 12 12 12 13 13 13 13 14 14 14 15 15 16
15 14 14 14 14 14 13 12 12 12 11 11 10 10 10 10 10 10 10 10 11 11 11 12 12 12 12 12 12 12 12 12 12 12 12 13 14 14 15 15 16 16
14 14 13 13 13 13 12 12 11 11 10 10 10 10 10 9 9 10 10 10 10 10 11 11 11 11 11 11 11 11 11 11 12 12 12 13 14 15 15 16 16 17
14 13 13 13 13 12 11 11 11 10 10 10 9 9 9 9 9 9 9 9 10 10 10 10 10 11 11 11 11 11 11 11 11 12 12 13 14 14 14 15 15 16
13 13 12 12 12 11 11 11 11 10 10 9 9 9 9 9 9 9 9 9 10 10 10 10 10 11 11 11 11 11 11 11 11 11 12 12 12 12 12 13 14 14
13 12 12 12 12 11 11 11 10 10 10 9 9 9 9 9 9 9 9 10 10 10 10 11 11 11 11 11 11 11 10 10 11 11 11 10 10 10 11 12 13 13
Height
805 804 806 807 806 804 804 805 805 807 809 810 812 813 815 816 817 818 818 818 819 819 819 821 821 823 823 823 823 822 822 821 821 821 821 821 821 821 821 822 823 824
804 804 805 806 804 803 803 804 806 807 808 810 811 813 814 816 816 817 818 818 818 818 818 819 819 821 823 823 823 822 821 820 820 820 819 819 819 819 819 819 820 821
803 802 802 802 802 802 803 804 805 807 808 809 810 811 812 813 813 814 815 816 817 817 817 817 816 817 819 821 822 821 819 819 818 818 819 819 819 818 818 818 818 819
802 802 801 801 801 801 802 803 805 806 807 808 809 810 810 811 810 810 812 815 816 816 816 816 816 816 816 817 819 819 818 817 816 817 819 819 819 818 818 818 817 817
803 802 802 802 801 801 801 803 803 804 805 806 807 808 809 810 808 807 809 812 815 815 815 814 814 815 815 816 816 816 816 815 815 816 818 819 819 819 819 819 820 819
803 803 803 803 802 801 800 800 802 803 804 805 806 807 808 808 807 806 807 810 813 813 813 812 812 813 814 814 815 814 814 814 813 814 817 818 818 817 817 817 818 819
803 803 803 803 803 803 802 801 801 801 803 804 806 808 808 807 806 806 807 809 809 810 810 810 810 811 812 813 813 813 813 813 812 813 814 815 815 815 815 814 814 815
804 803 804 804 804 804 804 804 804 803 803 803 804 806 807 807 806 806 807 808 808 808 807 808 809 809 810 811 812 812 813 813 813 812 813 813 813 813 813 813 813 813
804 804 804 804 804 804 805 805 806 806 806 806 805 805 807 808 808 807 805 805 806 806 806 807 807 808 809 810 811 812 812 812 812 812 812 813 813 812 812 812 813 812
805 805 806 806 805 805 805 805 806 806 806 807 807 807 808 810 811 811 809 807 806 805 805 806 807 807 808 808 809 810 810 810 811 811 811 812 812 812 811 811 812 811
806 806 806 806 806 806 806 806 806 806 805 806 805 806 806 807 809 810 810 810 808 806 806 807 807 807 808 807 807 808 809 809 810 809 809 809 809 809 809 809 810 809
806 806 806 807 806 806 806 806 805 805 805 805 805 804 804 804 805 806 807 808 808 808 808 807 807 807 806 806 806 807 808 808 808 807 807 807 807 807 807 807 807 807
806 806 806 806 806 806 806 805 805 805 805 805 805 804 804 804 804 804 805 806 806 806 807 806 805 805 805 805 805 806 807 806 805 805 804 805 805 805 805 805 805 805
806 806 806 806 806 806 806 805 805 805 805 805 805 805 805 805 804 804 804 805 805 805 805 805 804 804 804 804 804 804 805 804 803 803 802 802 803 803 803 803 803 803
806 806 806 806 806 806 806 806 806 806 806 805 805 805 805 805 805 805 804 804 804 804 804 804 804 803 803 803 803 803 803 803 802 802 801 801 801 801 801 801 801 801
806 806 805 806 806 806 806 806 806 806 806 806 805 805 805 804 804 805 804 804 804 804 804 804 804 803 802 802 802 802 802 801 801 801 800 800 800 799 799 799 799 800
807 806 806 806 806 806 806 806 806 806 806 805 805 805 805 804 804 804 804 804 804 804 804 804 803 802 801 801 801 800 800 800 799 799 799 798 798 798 798 798 798 798
807 807 807 807 807 806 806 806 805 805 805 805 805 804 804 804 804 804 803 803 803 803 803 803 802 801 800 800 799 799 798 798 798 798 797 797 797 796 796 797 797 797
808 807 807 807 807 806 806 805 805 804 804 804 804 803 803 803 803 803 802 802 802 802 801 801 801 800 799 799 798 797 797 797 796 796 796 796 795 795 795 795 795 795
808 807 808 808 807 807 807 806 805 805 804 804 803 803 802 802 802 801 801 801 801 801 801 800 800 799 798 797 796 796 796 795 795 795 795 794 794 794 793 793 793 793
808 808 808 807 807 807 807 806 806 806 805 805 804 803 803 802 801 801 801 800 800 800 800 799 799 798 797 797 796 795 795 795 794 794 794 793 793 792 792 791 791 791
809 808 808 807 807 807 806 806 806 806 805 805 804 804 803 802 802 801 801 800 800 799 799 799 798 797 797 796 796 795 795 795 794 794 794 793 792 791 791 790 790 790
810 809 809 808 808 807 807 807 806 806 805 805 805 804 804 803 802 802 801 800 800 799 799 798 797 797 796 796 795 795 795 795 795 794 793 793 792 791 791 790 790 790
811 810 810 809 808 808 808 807 807 806 806 806 805 805 804 804 803 802 801 800 800 799 798 798 797 797 796 796 795 795 795 795 795 794 794 793 791 790 790 789 789 789
811 811 810 810 809 809 809 808 808 808 807 806 806 805 804 804 803 802 802 801 800 799 798 798 797 797 796 796 796 796 796 795 795 795 795 793 792 790 789 788 788 788
811 811 811 810 810 810 810 809 809 808 808 807 807 806 805 804 803 802 801 800 800 799 798 797 797 797 797 796 796 796 796 796 796 796 795 794 793 792 791 789 789 788
Wind_Speed
8 13 15 13 11 10 11 10 10 10 11 12 12 11 11 12 15 17 18 17 16 16 14 12 13 13 15 18 18 19 19 20 22 22 23 24 25 27 28 28 27 26
9 13 12 12 12 11 11 11 11 12 13 13 12 11 9 7 9 12 15 17 18 19 17 15 14 13 14 17 18 19 19 20 21 21 21 23 24 26 28 29 28 27
4 9 8 7 8 8 8 9 11 13 14 14 12 11 10 9 10 10 13 17 18 18 18 17 17 16 16 18 18 19 20 20 21 20 19 21 22 23 26 27 28 27
3 2 4 5 6 7 7 7 9 10 11 12 11 11 10 11 13 12 11 16 18 18 18 17 17 17 17 17 17 19 20 20 21 20 19 20 21 21 22 23 24 26
4 2 2 3 6 7 8 8 7 7 9 10 10 10 10 10 12 11 11 16 19 19 18 17 16 14 13 15 17 19 20 20 20 19 19 21 21 21 20 18 19 22
5 3 3 4 5 8 9 9 8 7 8 8 8 9 9 11 14 12 12 17 19 19 18 17 16 14 13 14 17 18 19 20 18 16 17 19 20 21 19 18 19 21
8 7 4 2 4 7 8 8 9 9 8 9 9 8 8 12 15 15 14 17 18 18 16 15 16 16 15 15 16 17 18 20 20 18 17 18 19 21 20 20 21 23
10 9 8 6 3 3 5 6 7 7 8 10 12 10 9 11 14 15 16 17 17 16 15 14 15 16 16 16 17 17 16 17 19 19 20 21 21 21 21 21 22 24
10 10 10 10 8 6 4 3 1 2 4 7 10 11 11 12 13 14 16 16 15 13 13 14 14 15 17 17 16 15 14 14 16 18 20 21 21 20 20 21 22 24
8 7 8 9 9 7 7 7 5 4 2 1 4 6 8 10 12 13 14 14 13 13 13 14 15 16 15 15 15 15 15 15 13 14 17 19 20 19 19 19 20 22
6 6 6 7 7 7 6 6 6 6 6 6 5 5 4 3 6 8 10 11 11 12 14 15 15 15 13 14 15 14 15 16 13 13 15 18 19 19 19 20 20 22
5 6 6 5 5 6 6 6 6 7 8 8 8 9 9 7 6 3 3 6 8 9 11 12 11 11 11 12 12 12 12 14 15 14 14 15 18 18 18 18 18 19
6 6 5 5 5 5 6 6 7 7 8 8 7 8 9 9 10 8 6 4 4 4 6 7 7 8 9 9 9 9 9 11 13 15 14 14 15 16 15 15 16 17
6 5 5 5 5 5 5 6 6 7 8 8 8 8 7 7 8 9 9 8 8 7 6 6 6 5 6 7 6 6 7 8 10 12 13 13 14 15 16 17 17 18
6 6 5 6 5 5 5 5 5 6 6 7 8 8 7 7 7 8 9 8 9 9 8 8 7 5 3 5 5 4 4 6 7 8 10 11 12 14 15 16 16 16
7 6 6 7 6 5 5 6 6 6 6 6 7 7 8 8 9 9 9 9 9 9 9 9 8 7 7 8 8 7 6 6 7 7 8 10 11 12 13 14 14 14
7 7 6 7 7 6 6 6 6 6 6 7 8 8 8 9 10 9 10 10 10 10 9 9 8 9 10 11 10 10 10 10 10 11 11 12 12 13 14 14 14 14
7 7 7 7 7 7 7 7 7 7 8 9 9 9 9 10 10 10 10 10 10 10 10 9 10 11 12 12 11 11 11 11 11 12 13 14 15 15 16 16 16 16
7 7 7 7 7 8 8 8 9 9 10 11 11 11 11 11 11 11 11 11 11 11 12 11 11 11 13 13 13 14 14 14 14 15 16 17 18 18 18 18 18 18
8 7 7 8 8 8 8 9 10 11 11 12 12 12 12 12 12 13 12 12 12 13 13 12 13 14 13 12 12 13 13 15 15 16 17 18 19 20 21 21 20 20
8 8 8 9 9 8 8 9 10 11 11 11 12 12 12 13 13 13 13 13 13 13 13 12 13 14 13 12 13 14 14 14 14 14 15 16 17 18 18 18 19 19
7 8 8 9 9 9 9 10 11 11 11 12 11 11 12 12 12 12 13 13 13 13 13 13 13 13 15 17 18 17 16 14 12 13 14 15 15 16 15 15 15 16
7 8 8 8 9 9 10 11 11 11 12 12 11 11 11 12 11 12 12 12 13 13 13 15 16 16 17 19 18 17 16 14 12 13 14 15 15 14 13 13 13 13
6 7 7 8 8 9 10 10 10 11 11 11 11 11 11 11 11 12 12 12 13 13 13 15 16 15 16 17 17 16 15 14 13 13 14 15 15 14 12 12 11 11
5 6 7 7 7 8 9 9 10 10 11 11 11 11 11 11 11 12 12 12 12 13 13 13 13 13 14 15 15 14 13 14 13 12 13 15 17 17 17 16 14 13
5 6 7 6 6 7 8 8 9 10 10 10 10 10 10 11 12 12 12 12 12 13 12 12 11 11 11 12 11 11 11 13 12 10 11 15 18 19 19 18 17 16
Wind_Direction
204 214 222 224 220 204 202 211 217 222 222 217 218 221 225 233 240 241 239 237 238 239 241 248 252 249 241 234 230 225 220 220 225 228 228 230 234 235 237 238 239 240
214 224 228 226 225 219 218 228 237 243 243 236 230 226 221 234 252 250 247 247 243 238 235 238 249 266 267 255 247 239 231 227 227 226 226 229 234 238 239 240 241 241
194 226 240 239 229 224 230 237 242 248 251 246 239 230 222 227 232 232 243 251 248 241 238 237 237 242 246 250 254 251 243 236 232 229 229 232 236 240 241 241 242 242
84 201 248 268 254 234 235 242 244 248 252 250 242 239 242 240 231 230 244 254 252 243 239 241 242 241 241 245 255 259 255 250 242 237 238 240 242 244 244 244 243 242
71 108 193 263 271 252 242 242 245 252 258 255 248 248 255 252 243 242 247 253 255 250 244 243 244 249 256 259 261 260 257 256 251 246 247 250 250 250 251 256 259 258
70 84 151 199 234 246 250 255 256 256 261 263 258 252 250 250 249 247 246 251 255 253 250 248 246 251 258 260 261 258 255 257 259 256 254 254 254 253 251 255 261 265
62 69 82 139 202 219 233 255 267 268 270 274 269 255 244 247 250 248 247 250 251 251 252 250 249 253 255 257 259 259 259 262 262 259 257 259 264 264 258 256 255 254
50 57 56 56 86 166 197 225 250 260 261 266 271 268 258 254 255 254 250 244 243 247 249 250 253 255 255 256 257 257 260 264 263 261 261 266 273 272 269 269 266 260
42 45 41 42 55 64 64 89 156 231 234 246 262 269 262 254 252 254 257 258 260 260 256 255 256 256 254 253 254 256 255 258 267 270 269 268 271 274 274 274 273 268
36 37 37 36 41 41 34 41 44 39 40 282 265 262 252 241 231 231 242 258 270 274 272 267 260 256 255 251 248 251 250 250 260 271 274 274 273 274 274 273 276 276
22 25 36 31 26 25 21 20 22 21 15 8 5 359 336 287 246 230 230 241 249 257 263 264 263 261 260 254 248 251 256 255 251 254 265 273 274 271 269 271 275 279
17 17 21 15 10 10 4 358 3 7 2 2 6 3 1 358 342 315 253 247 248 249 253 256 262 265 263 259 253 251 258 260 255 249 250 262 270 271 271 274 278 280
32 24 13 9 6 357 349 347 350 350 348 350 354 354 354 353 350 358 9 345 315 294 275 268 271 271 271 273 262 250 253 261 260 254 253 262 271 273 273 274 276 276
46 36 22 21 14 2 357 352 344 337 335 336 339 341 341 342 342 347 352 349 344 340 327 316 308 290 277 281 274 255 256 270 271 264 265 271 275 278 281 280 279 279
46 35 30 32 25 17 16 5 352 344 337 333 331 332 334 335 337 337 336 334 333 331 330 335 340 338 322 315 313 299 284 287 286 279 277 279 282 291 296 294 293 294
39 30 32 32 23 20 21 11 4 359 348 345 346 344 342 342 341 336 332 328 326 324 325 331 334 331 330 331 329 327 322 313 306 299 296 296 297 301 305 306 309 311
34 28 34 33 19 15 18 10 5 4 0 2 4 356 350 347 344 340 337 333 329 323 321 323 319 313 317 320 317 313 311 308 307 307 306 305 304 301 301 303 304 308
27 26 30 30 17 10 11 3 359 6 8 5 1 355 351 348 345 343 341 338 336 331 326 322 313 306 310 317 319 317 314 311 309 308 304 301 302 301 300 301 299 300
16 23 24 21 16 11 6 0 3 11 10 3 358 355 354 352 351 351 347 344 345 342 338 335 327 319 319 322 324 322 320 317 313 309 306 302 300 298 296 296 297 297
8 16 17 14 13 12 6 6 13 13 6 1 358 355 354 353 351 350 348 348 349 344 339 338 336 336 338 338 337 336 330 326 323 319 315 307 300 297 293 291 291 291
7 10 14 11 8 9 12 13 15 11 5 4 2 357 355 352 349 347 345 346 347 343 340 335 331 336 348 355 352 348 343 340 338 331 320 310 303 297 291 289 288 286
9 8 12 8 3 9 16 14 12 10 8 7 2 358 355 351 349 347 345 344 344 343 341 336 332 337 347 350 349 350 352 351 345 334 323 312 305 301 294 290 288 285
11 11 14 6 5 15 17 11 9 8 7 3 358 356 354 351 350 348 347 345 343 343 341 334 332 336 340 342 347 355 359 357 350 339 327 315 307 305 303 299 293 291
12 16 15 5 10 23 17 9 9 6 3 360 355 352 351 351 351 348 346 346 342 341 341 335 332 336 338 339 345 352 358 360 353 339 326 322 323 325 326 326 322 324
17 22 18 9 18 27 17 10 11 8 4 359 353 352 351 350 350 347 345 346 343 340 339 335 334 336 335 336 341 346 356 1 354 338 328 333 338 336 331 329 326 329
20 22 19 15 20 24 16 13 13 9 7 6 1 357 353 347 346 346 344 344 343 340 336 332 333 333 332 338 345 350 0 7 2 346 331 330 330 328 324 320 317 317